Palma de Mallorca, Spain

5:14 AM CET on November 22, 2017 (GMT +0100)
Palma De Mallorca

Weather History for LEPA - January, 2012

Change the Weather History Date:

Monday, January 9, 2012

  Actual Average Record
Temperature  
Mean Temperature 46 °F -  
Max Temperature 60 °F 57 °F 66 °F (2016)
Min Temperature 33 °F 39 °F 32 °F (2015)
Degree Days  
Heating Degree Days 18    
Moisture  
Dew Point 40 °F    
Average Humidity 83    
Maximum Humidity 100    
Minimum Humidity 53    
Precipitation  
Precipitation 0.00 in 0.05 in - ()
Sea Level Pressure  
Sea Level Pressure 30.35 in    
Wind  
Wind Speed 3 mph ()    
Max Wind Speed 13 mph    
Max Gust Speed -    
Visibility 6.8 miles    
Events      
Averages and records for this station are not official NWS values.
T = Trace of Precipitation, MM = Missing Value Source: Averaged Metar Reports

Daily Weather History Graph

Daily Weather History Graph

Search for Another Location

Airport or City:

Trip Planner

Search our weather history database for the weather conditions in past years. The results will help you decide how hot, cold, wet, or windy it might be!

Date:

Astronomy

Jan. 09, 2012 Rise Set
Actual Time 8:09 AM CET 5:42 PM CET
Civil Twilight 7:39 AM CET 6:12 PM CET
Nautical Twilight 7:06 AM CET 6:45 PM CET
Astronomical Twilight 6:33 AM CET 7:18 PM CET
Moon 6:12 PM CET (1/9) 7:59 AM CET (1/9)
Length of Visible Light 10h 32m
Length of Day
9h 32m
Full, 100% of the Moon is Illuminated
Jan 9
Full
Jan 16
Last Quarter
Jan 23
New
Jan 31
First Quarter
Feb 7
Full

Hourly Weather History & Observations

Time (CET) Temp. Windchill Dew Point Humidity Pressure Visibility Wind Dir Wind Speed Gust Speed Precip Events Conditions
12:00 AM 42.8 °F 41.1 °F 39.2 °F 87% 30.27 in - NNE 3.5 mph - N/A   Clear
12:30 AM 41.0 °F - 39.2 °F 93% 30.27 in - NNE 2.3 mph - N/A   Clear
1:00 AM 40 °F - 38 °F 92% 30.27 in 11 mi Calm Calm - -  
1:00 AM 41.0 °F - 39.2 °F 93% 30.27 in - NE 2.3 mph - N/A   Clear
1:30 AM 37.4 °F - 37.4 °F 100% 30.27 in - NNE 1.2 mph - N/A   Clear
2:00 AM 39.2 °F - 39.2 °F 100% 30.27 in - ENE 1.2 mph - N/A   Clear
2:30 AM 37.4 °F - 35.6 °F 93% 30.27 in - Calm Calm - N/A   Clear
3:00 AM 37.4 °F - 35.6 °F 93% 30.27 in - Calm Calm - N/A   Clear
3:30 AM 37.4 °F - 37.4 °F 100% 30.27 in - Calm Calm - N/A   Clear
4:00 AM 35.6 °F - 33.8 °F 93% 30.27 in 6.2 mi Calm Calm - N/A   Partly Cloudy
4:30 AM 35.6 °F - 35.6 °F 100% 30.27 in 6.2 mi NE 1.2 mph - N/A   Partly Cloudy
5:00 AM 35.6 °F - 33.8 °F 93% 30.27 in 6.2 mi Variable 1.2 mph - N/A   Partly Cloudy
5:30 AM 35.6 °F - 35.6 °F 100% 30.27 in 6.2 mi NNE 2.3 mph - N/A   Partly Cloudy
6:00 AM 35.6 °F 32.8 °F 33.8 °F 93% 30.27 in 6.2 mi NE 3.5 mph - N/A   Partly Cloudy
6:30 AM 35.6 °F - 35.6 °F 100% 30.30 in 6.2 mi ENE 1.2 mph - N/A   Partly Cloudy
7:00 AM 35 °F - 34 °F 96% 30.31 in 10 mi 1.2 mph - -   Scattered Clouds
7:00 AM 35.6 °F - 33.8 °F 93% 30.30 in 6.2 mi North 2.3 mph - N/A   Partly Cloudy
7:30 AM 37.4 °F - 35.6 °F 93% 30.30 in - Variable 1.2 mph - N/A   Clear
8:00 AM 33.8 °F - 33.8 °F 100% 30.33 in 6.2 mi NE 2.3 mph - N/A   Partly Cloudy
8:30 AM 33.8 °F - 33.8 °F 100% 30.33 in 6.2 mi Variable 2.3 mph - N/A   Partly Cloudy
9:00 AM 37.4 °F 34.9 °F 37.4 °F 100% 30.33 in 6.2 mi ENE 3.5 mph - N/A   Partly Cloudy
9:30 AM 41.0 °F - 41.0 °F 100% 30.36 in 6.2 mi Variable 2.3 mph - N/A   Partly Cloudy
10:00 AM 46.4 °F - 44.6 °F 93% 30.36 in 6.2 mi Calm Calm - N/A   Partly Cloudy
10:30 AM 50.0 °F - 46.4 °F 87% 30.36 in 6.2 mi Variable 1.2 mph - N/A   Partly Cloudy
11:00 AM 53.6 °F - 46.4 °F 77% 30.39 in 6.2 mi Variable 1.2 mph - N/A   Partly Cloudy
11:30 AM 57.2 °F - 48.2 °F 72% 30.39 in 6.2 mi Variable 1.2 mph - N/A   Partly Cloudy
12:00 PM 57.2 °F - 46.4 °F 67% 30.39 in 6.2 mi ENE 10.4 mph - N/A   Scattered Clouds
12:30 PM 57.2 °F - 46.4 °F 67% 30.39 in 6.2 mi ENE 9.2 mph - N/A   Scattered Clouds
1:00 PM 59 °F - 46 °F 53% 30.38 in 19 mi ENE 8.1 mph - -   Partly Cloudy
1:00 PM 59.0 °F - 46.4 °F 63% 30.36 in 6.2 mi NE 9.2 mph - N/A   Scattered Clouds
1:30 PM 59.0 °F - 46.4 °F 63% 30.36 in 6.2 mi ENE 10.4 mph - N/A   Scattered Clouds
2:00 PM 59.0 °F - 44.6 °F 59% 30.36 in 6.2 mi NE 10.4 mph - N/A   Scattered Clouds
2:30 PM 59.0 °F - 46.4 °F 63% 30.36 in 6.2 mi NE 10.4 mph - N/A   Partly Cloudy
3:00 PM 59.0 °F - 44.6 °F 59% 30.36 in 6.2 mi ENE 10.4 mph - N/A   Partly Cloudy
3:30 PM 59.0 °F - 44.6 °F 59% 30.36 in 6.2 mi ENE 12.7 mph - N/A   Partly Cloudy
4:00 PM 57.2 °F - 42.8 °F 59% 30.36 in 6.2 mi ENE 11.5 mph - N/A   Partly Cloudy
4:30 PM 57.2 °F - 42.8 °F 59% 30.36 in 6.2 mi ENE 12.7 mph - N/A   Partly Cloudy
5:00 PM 55.4 °F - 42.8 °F 63% 30.39 in 6.2 mi ENE 10.4 mph - N/A   Partly Cloudy
5:30 PM 53.6 °F - 42.8 °F 67% 30.39 in 6.2 mi NE 8.1 mph - N/A   Partly Cloudy
6:00 PM 51.8 °F - 42.8 °F 71% 30.39 in 6.2 mi ENE 3.5 mph - N/A   Partly Cloudy
6:30 PM 50.0 °F - 42.8 °F 76% 30.39 in 6.2 mi NE 8.1 mph - N/A   Partly Cloudy
7:00 PM 49 °F - 42 °F 68% 30.42 in 9 mi ENE 8.1 mph - -   Scattered Clouds
7:00 PM 48.2 °F - 42.8 °F 82% 30.42 in 6.2 mi NE 6.9 mph - N/A   Partly Cloudy
7:30 PM 46.4 °F 43.5 °F 41.0 °F 81% 30.42 in 6.2 mi NE 5.8 mph - N/A   Partly Cloudy
8:00 PM 48.2 °F - 41.0 °F 76% 30.42 in 6.2 mi NE 3.5 mph - N/A   Partly Cloudy
8:30 PM 46.4 °F 44.3 °F 41.0 °F 81% 30.45 in 6.2 mi NE 4.6 mph - N/A   Partly Cloudy
9:00 PM 44.6 °F - 41.0 °F 87% 30.45 in 6.2 mi Calm Calm - N/A   Partly Cloudy
9:30 PM 44.6 °F - 41.0 °F 87% 30.45 in 6.2 mi Calm Calm - N/A   Partly Cloudy
10:00 PM 44.6 °F - 41.0 °F 87% 30.45 in 6.2 mi Calm Calm - N/A   Partly Cloudy
10:30 PM 42.8 °F - 41.0 °F 93% 30.45 in 6.2 mi NNE 1.2 mph - N/A   Partly Cloudy
11:00 PM 42.8 °F - 41.0 °F 93% 30.45 in 6.2 mi Calm Calm - N/A   Partly Cloudy
11:30 PM 42.8 °F - 39.2 °F 87% 30.45 in 6.2 mi NNW 1.2 mph - N/A   Partly Cloudy